NORTHERN NASSAU  -  Flash Flood Watch Flash Flood Watch     Rip Current Statement Rip Current Statement        NORTHERN QUEENS  -  Flash Flood Watch Flash Flood Watch     Rip Current Statement Rip Current Statement        SOUTHERN NASSAU  -  Flash Flood Watch Flash Flood Watch     Rip Current Statement Rip Current Statement        SOUTHERN QUEENS  -  Flash Flood Watch Flash Flood Watch     Rip Current Statement Rip Current Statement        NORTHEAST SUFFOLK  -  Rip Current Statement Rip Current Statement        NORTHWEST SUFFOLK  -  Rip Current Statement Rip Current Statement        SOUTHEAST SUFFOLK  -  Rip Current Statement Rip Current Statement        SOUTHWEST SUFFOLK  -  Rip Current Statement Rip Current Statement      

Active alerts

Northern Queens
  Details for Northern Queens Flash Flood Watch  +1 additional alert
Southern Queens
  Details for Southern Queens Flash Flood Watch  +1 additional alert
Northern Nassau
  Details for Northern Nassau Flash Flood Watch  +1 additional alert
Southern Nassau
  Details for Southern Nassau Flash Flood Watch  +1 additional alert
Northwest Suffolk
  Details for Northwest Suffolk Rip Current Statement
Southwest Suffolk
  Details for Southwest Suffolk Rip Current Statement
Northeast Suffolk
  Details for Northeast Suffolk Rip Current Statement
Southeast Suffolk
  Details for Southeast Suffolk Rip Current Statement


WXM80 ListenWXM80 Stop

You find our weather info also at:

UK Metoffice

WeatherCloud

Weather Underground

Northeastern Weather Network

AWEKAS

Citizen Weather Observer Program (CWOP)

HAMweather, WeatherForYou, PWS Weather


Weather Underground History page Text

Daily Summary for October 23, 2017 Units:  English    Metric   Both
« Previous Day
Next Day »
Daily Weekly Monthly Yearly Custom
  High: Low: Average:
Temperature: 76.3 °F 55.2 °F 65.8 °F
Dew Point: 67.3 °F 53.2 °F 61.9 °F
Humidity: 98 % 70 % 88 %
Wind Speed: 7.8 mph 0.0 mph 2.1 mph
Wind Gust: 18.0 mph - -
Wind:- - SSE
Pressure: 30.36 in 30.01 in -
Precipitation: 0.00 in    
Historical Graphs
 
 
Tabular Data for October 23, 2017
Time Temperature Dew Point Pressure Wind Wind Speed Wind Gust Humidity Rainfall Rate (Hourly)
00:03 56.4 °F 54.4 °F 30.36 in Calm     93 % 0.00 in
00:08 56.4 °F 54.4 °F 30.36 in Calm     93 % 0.00 in
00:13 56.4 °F 54.4 °F 30.35 in Calm     93 % 0.00 in
00:18 56.4 °F 54.4 °F 30.36 in Calm     93 % 0.00 in
00:23 56.3 °F 54.3 °F 30.36 in Calm     93 % 0.00 in
00:28 56.3 °F 54.3 °F 30.35 in Calm     93 % 0.00 in
00:33 56.2 °F 54.2 °F 30.35 in Calm     93 % 0.00 in
00:38 56.2 °F 54.2 °F 30.35 in Calm     93 % 0.00 in
00:43 56.1 °F 54.1 °F 30.35 in Calm     93 % 0.00 in
00:48 56.1 °F 54.1 °F 30.35 in Calm     93 % 0.00 in
00:53 56.0 °F 54.0 °F 30.35 in Calm     93 % 0.00 in
00:58 55.9 °F 53.9 °F 30.35 in Calm     93 % 0.00 in
01:03 55.9 °F 53.9 °F 30.35 in Calm     93 % 0.00 in
01:08 55.8 °F 53.8 °F 30.35 in Calm     93 % 0.00 in
01:13 55.7 °F 53.7 °F 30.35 in Calm     93 % 0.00 in
01:18 55.7 °F 53.7 °F 30.35 in Calm     93 % 0.00 in
01:23 55.7 °F 53.7 °F 30.34 in Calm     93 % 0.00 in
01:28 55.6 °F 53.6 °F 30.34 in Calm     93 % 0.00 in
01:34 55.6 °F 53.6 °F 30.35 in Calm     93 % 0.00 in
01:39 55.5 °F 53.5 °F 30.34 in Calm     93 % 0.00 in
01:44 55.5 °F 53.5 °F 30.35 in Calm     93 % 0.00 in
01:49 55.5 °F 53.5 °F 30.34 in Calm     93 % 0.00 in
01:54 55.4 °F 53.4 °F 30.34 in Calm     93 % 0.00 in
01:59 55.3 °F 53.3 °F 30.34 in SE 0.1 mph 1.2 mph 93 % 0.00 in
02:04 55.2 °F 53.2 °F 30.36 in SE 1.2 mph 3.5 mph 93 % 0.00 in
02:09 55.3 °F 53.3 °F 30.36 in Calm   2.3 mph 93 % 0.00 in
02:14 55.5 °F 53.8 °F 30.36 in Calm   1.2 mph 94 % 0.00 in
02:19 55.7 °F 54.3 °F 30.34 in Calm   2.3 mph 95 % 0.00 in
02:24 56.2 °F 55.1 °F 30.36 in SE 0.8 mph 3.5 mph 96 % 0.00 in
02:29 56.8 °F 55.7 °F 30.36 in SE 0.3 mph 1.2 mph 96 % 0.00 in
02:34 57.3 °F 56.2 °F 30.36 in SE 0.6 mph 2.3 mph 96 % 0.00 in
02:39 57.9 °F 57.1 °F 30.35 in SE 1.2 mph 3.5 mph 97 % 0.00 in
02:44 58.4 °F 57.6 °F 30.35 in SE 2.1 mph 3.5 mph 97 % 0.00 in
02:50 58.8 °F 58.0 °F 30.35 in SSE 2.1 mph 3.5 mph 97 % 0.00 in
02:55 59.2 °F 58.3 °F 30.34 in SE 1.5 mph 4.0 mph 97 % 0.00 in
03:00 59.4 °F 58.5 °F 30.34 in SE 3.2 mph 6.0 mph 97 % 0.00 in
03:05 59.5 °F 58.6 °F 30.32 in SE 3.4 mph 5.0 mph 97 % 0.00 in
03:10 59.5 °F 58.6 °F 30.32 in SE 1.3 mph 3.5 mph 97 % 0.00 in
03:15 59.5 °F 58.6 °F 30.32 in SSE 1.8 mph 3.5 mph 97 % 0.00 in
03:20 59.5 °F 58.6 °F 30.32 in SE 4.0 mph 7.0 mph 97 % 0.00 in
03:25 59.5 °F 58.6 °F 30.32 in SE 2.2 mph 3.0 mph 97 % 0.00 in
03:30 59.5 °F 58.6 °F 30.32 in SSE 2.2 mph 3.5 mph 97 % 0.00 in
03:35 59.5 °F 58.6 °F 30.32 in ESE 1.8 mph 4.0 mph 97 % 0.00 in
03:40 59.5 °F 58.6 °F 30.32 in SE 1.2 mph 4.6 mph 97 % 0.00 in
03:45 59.5 °F 58.6 °F 30.32 in SE 2.1 mph 3.5 mph 97 % 0.00 in
03:51 59.5 °F 58.6 °F 30.31 in SSE 1.0 mph 3.0 mph 97 % 0.00 in
03:56 59.5 °F 58.6 °F 30.31 in Calm   5.0 mph 97 % 0.00 in
04:01 59.4 °F 58.5 °F 30.31 in SE 0.1 mph 1.2 mph 97 % 0.00 in
04:06 59.3 °F 58.4 °F 30.32 in Calm   3.0 mph 97 % 0.00 in
04:11 59.2 °F 58.3 °F 30.32 in SE 1.0 mph 3.0 mph 97 % 0.00 in
04:16 59.1 °F 58.2 °F 30.31 in SE 1.0 mph 3.0 mph 97 % 0.00 in
04:21 59.1 °F 58.2 °F 30.31 in Calm   2.0 mph 97 % 0.00 in
04:26 59.1 °F 58.2 °F 30.31 in Calm   1.0 mph 97 % 0.00 in
04:31 59.1 °F 58.2 °F 30.31 in Calm   1.0 mph 97 % 0.00 in
04:36 59.1 °F 58.2 °F 30.31 in Calm     97 % 0.00 in
04:41 59.0 °F 58.2 °F 30.32 in Calm   1.2 mph 97 % 0.00 in
04:46 59.1 °F 58.2 °F 30.31 in Calm   1.0 mph 97 % 0.00 in
04:51 59.1 °F 58.2 °F 30.31 in Calm     97 % 0.00 in
04:56 59.2 °F 58.3 °F 30.32 in Calm     97 % 0.00 in
05:01 59.2 °F 58.3 °F 30.32 in Calm     97 % 0.00 in
05:06 59.2 °F 58.3 °F 30.31 in Calm     97 % 0.00 in
05:11 59.3 °F 58.4 °F 30.32 in Calm     97 % 0.00 in
05:16 59.4 °F 58.5 °F 30.31 in Calm     97 % 0.00 in
05:21 59.5 °F 58.9 °F 30.31 in Calm     98 % 0.00 in
05:23 59.6 °F 59.0 °F 30.31 in Calm     98 % 0.00 in
05:28 59.6 °F 59.0 °F 30.31 in Calm     98 % 0.00 in
05:33 59.6 °F 59.0 °F 30.31 in SE 0.1 mph   98 % 0.00 in
05:38 59.6 °F 59.0 °F 30.31 in Calm     98 % 0.00 in
05:43 59.6 °F 59.0 °F 30.31 in Calm   1.2 mph 98 % 0.00 in
05:48 59.6 °F 59.0 °F 30.31 in Calm     98 % 0.00 in
05:53 59.5 °F 58.9 °F 30.31 in Calm     98 % 0.00 in
06:03 59.5 °F 58.9 °F 30.31 in Calm     98 % 0.00 in
06:08 59.5 °F 58.9 °F 30.31 in Calm     98 % 0.00 in
06:13 59.5 °F 58.9 °F 30.31 in Calm     98 % 0.00 in
06:18 59.5 °F 58.9 °F 30.32 in Calm     98 % 0.00 in
06:23 59.6 °F 59.0 °F 30.31 in SE 0.5 mph 3.5 mph 98 % 0.00 in
06:28 59.6 °F 59.0 °F 30.31 in Calm     98 % 0.00 in
06:33 59.6 °F 59.0 °F 30.31 in Calm     98 % 0.00 in
06:38 59.6 °F 59.0 °F 30.30 in Calm     98 % 0.00 in
06:43 59.6 °F 59.0 °F 30.30 in Calm     98 % 0.00 in
06:48 59.5 °F 58.9 °F 30.31 in Calm     98 % 0.00 in
06:53 59.5 °F 58.6 °F 30.30 in Calm     97 % 0.00 in
06:58 59.5 °F 58.6 °F 30.30 in Calm     97 % 0.00 in
07:03 59.5 °F 58.6 °F 30.30 in Calm     97 % 0.00 in
07:08 59.6 °F 59.0 °F 30.30 in SE 1.2 mph 2.3 mph 98 % 0.00 in
07:13 59.7 °F 59.1 °F 30.30 in SE 1.0 mph 3.5 mph 98 % 0.00 in
07:18 59.9 °F 59.3 °F 30.30 in SE 1.8 mph 3.5 mph 98 % 0.00 in
07:23 60.2 °F 59.6 °F 30.30 in SE 1.3 mph 2.3 mph 98 % 0.00 in
07:29 60.4 °F 59.8 °F 30.30 in SSE 0.7 mph 3.5 mph 98 % 0.00 in
07:34 60.5 °F 59.9 °F 30.30 in SSE 1.0 mph 3.5 mph 98 % 0.00 in
07:39 60.4 °F 59.8 °F 30.30 in SSE 1.5 mph 3.5 mph 98 % 0.00 in
07:41 60.4 °F 59.8 °F 30.30 in SE 2.0 mph 5.0 mph 98 % 0.00 in
07:46 60.5 °F 59.9 °F 30.30 in Calm   5.0 mph 98 % 0.00 in
07:51 60.4 °F 59.8 °F 30.30 in Calm   3.0 mph 98 % 0.00 in
07:56 60.4 °F 59.8 °F 30.30 in Calm   3.0 mph 98 % 0.00 in
08:00 60.4 °F 59.8 °F 30.30 in SE 1.1 mph 3.5 mph 98 % 0.00 in
08:06 60.4 °F 59.9 °F 30.31 in Calm   4.0 mph 98 % 0.00 in
08:11 60.6 °F 60.0 °F 30.30 in SE 3.4 mph 4.6 mph 98 % 0.00 in
08:16 60.8 °F 60.2 °F 30.30 in SE 3.1 mph 4.0 mph 98 % 0.00 in
08:21 61.0 °F 60.4 °F 30.30 in SE 0.5 mph 1.2 mph 98 % 0.00 in
08:26 61.2 °F 60.6 °F 30.30 in Calm   2.3 mph 98 % 0.00 in
08:31 61.4 °F 60.8 °F 30.31 in Calm   1.2 mph 98 % 0.00 in
08:36 61.6 °F 61.0 °F 30.31 in SE 1.0 mph 3.5 mph 98 % 0.00 in
08:41 61.8 °F 61.2 °F 30.30 in SE 0.3 mph 3.5 mph 98 % 0.00 in
08:46 62.2 °F 61.6 °F 30.30 in SE 1.7 mph 3.5 mph 98 % 0.00 in
08:51 62.4 °F 61.8 °F 30.30 in SE 0.8 mph 4.6 mph 98 % 0.00 in
08:56 62.7 °F 62.1 °F 30.30 in SE 0.3 mph 2.3 mph 98 % 0.00 in
09:01 63.0 °F 62.4 °F 30.30 in SE 3.4 mph 5.8 mph 98 % 0.00 in
09:06 63.1 °F 62.5 °F 30.29 in SE 2.3 mph 4.6 mph 98 % 0.00 in
09:11 63.2 °F 62.6 °F 30.30 in SE 2.9 mph 5.8 mph 98 % 0.00 in
09:16 63.4 °F 62.8 °F 30.30 in SSE 3.5 mph 6.9 mph 98 % 0.00 in
09:21 63.5 °F 62.9 °F 30.30 in SE 2.7 mph 4.6 mph 98 % 0.00 in
09:26 63.7 °F 63.1 °F 30.30 in SE 3.5 mph 7.0 mph 98 % 0.00 in
09:31 63.8 °F 63.2 °F 30.29 in SE 3.7 mph 8.1 mph 98 % 0.00 in
09:36 64.0 °F 63.4 °F 30.29 in SE 2.4 mph 3.5 mph 98 % 0.00 in
09:41 64.1 °F 63.5 °F 30.29 in SE 1.3 mph 3.5 mph 98 % 0.00 in
09:46 64.4 °F 63.8 °F 30.29 in Calm     98 % 0.00 in
09:51 64.6 °F 64.0 °F 30.29 in SE 2.6 mph 4.0 mph 98 % 0.00 in
09:56 64.9 °F 64.3 °F 30.28 in Calm   3.5 mph 98 % 0.00 in
10:01 65.3 °F 64.7 °F 30.28 in SE 6.2 mph 9.2 mph 98 % 0.00 in
10:06 65.6 °F 65.0 °F 30.28 in SE 5.2 mph 8.1 mph 98 % 0.00 in
10:11 66.0 °F 65.1 °F 30.27 in SSE 1.9 mph 3.5 mph 97 % 0.00 in
10:16 66.4 °F 65.2 °F 30.27 in SE 3.2 mph 5.0 mph 96 % 0.00 in
10:21 66.8 °F 65.3 °F 30.27 in SSE 0.3 mph 9.2 mph 95 % 0.00 in
10:26 67.3 °F 65.2 °F 30.27 in SE 4.1 mph 11.0 mph 93 % 0.00 in
10:31 67.7 °F 65.3 °F 30.27 in SSE 6.3 mph 9.2 mph 92 % 0.00 in
10:37 68.1 °F 65.1 °F 30.27 in SSE 4.0 mph 8.1 mph 90 % 0.00 in
10:42 68.4 °F 65.7 °F 30.27 in SE 0.7 mph 4.6 mph 91 % 0.00 in
10:47 68.7 °F 65.3 °F 30.27 in East 5.5 mph 8.1 mph 89 % 0.00 in
10:52 69.1 °F 65.4 °F 30.27 in ESE 3.4 mph 11.5 mph 88 % 0.00 in
10:57 69.5 °F 65.5 °F 30.26 in SSE 7.1 mph 11.5 mph 87 % 0.00 in
11:02 69.8 °F 65.1 °F 30.26 in SE 3.7 mph 5.8 mph 85 % 0.00 in
11:07 70.2 °F 65.8 °F 30.26 in SSE 5.1 mph 8.1 mph 86 % 0.00 in
11:12 70.6 °F 65.9 °F 30.26 in SE 1.6 mph 3.5 mph 85 % 0.00 in
11:17 71.0 °F 65.6 °F 30.26 in SE 3.7 mph 6.9 mph 83 % 0.00 in
11:22 71.6 °F 65.8 °F 30.26 in SSE 2.9 mph 6.9 mph 82 % 0.00 in
11:27 72.3 °F 66.5 °F 30.25 in SE 3.2 mph 4.6 mph 82 % 0.00 in
11:32 73.0 °F 65.7 °F 30.25 in SSE 1.1 mph 4.6 mph 78 % 0.00 in
11:37 73.4 °F 66.1 °F 30.25 in ESE 1.8 mph 5.0 mph 78 % 0.00 in
11:42 73.8 °F 66.1 °F 30.25 in SE 3.5 mph 6.9 mph 77 % 0.00 in
11:47 73.8 °F 66.1 °F 30.25 in SE 3.1 mph 5.8 mph 77 % 0.00 in
11:52 73.8 °F 65.8 °F 30.25 in SE 3.4 mph 11.0 mph 76 % 0.00 in
11:57 73.9 °F 65.9 °F 30.25 in SE 2.8 mph 4.0 mph 76 % 0.00 in
12:02 74.0 °F 66.0 °F 30.24 in SSE 2.0 mph 5.8 mph 76 % 0.00 in
12:07 74.6 °F 66.1 °F 30.24 in SE 2.6 mph 4.0 mph 75 % 0.00 in
12:12 75.4 °F 67.3 °F 30.24 in SE 0.4 mph 3.5 mph 76 % 0.00 in
12:18 76.1 °F 66.4 °F 30.24 in SSE 1.4 mph 9.2 mph 72 % 0.00 in
12:23 76.3 °F 66.6 °F 30.24 in SE 1.4 mph 3.5 mph 72 % 0.00 in
12:28 75.8 °F 65.3 °F 30.23 in SE 2.7 mph 10.4 mph 70 % 0.00 in
12:33 75.3 °F 64.8 °F 30.23 in SSE 6.2 mph 9.2 mph 70 % 0.00 in
12:38 74.6 °F 64.2 °F 30.23 in SSE 5.0 mph 12.7 mph 70 % 0.00 in
12:43 74.2 °F 64.6 °F 30.23 in NW 3.4 mph 6.9 mph 72 % 0.00 in
12:48 74.0 °F 64.4 °F 30.22 in South 1.7 mph 3.5 mph 72 % 0.00 in
12:53 74.0 °F 64.8 °F 30.22 in SSE 1.0 mph 2.3 mph 73 % 0.00 in
12:58 73.9 °F 64.3 °F 30.22 in SSE 4.2 mph 6.9 mph 72 % 0.00 in
13:03 73.7 °F 64.5 °F 30.21 in SE 0.8 mph 2.3 mph 73 % 0.00 in
13:08 74.0 °F 65.2 °F 30.21 in South 3.9 mph 5.8 mph 74 % 0.00 in
13:13 74.1 °F 64.1 °F 30.21 in SE 5.6 mph 10.4 mph 71 % 0.00 in
13:18 73.9 °F 63.5 °F 30.21 in SSE 5.3 mph 11.5 mph 70 % 0.00 in
13:23 73.8 °F 63.8 °F 30.21 in SSE 2.1 mph 4.6 mph 71 % 0.00 in
13:28 73.8 °F 63.8 °F 30.21 in SSW 5.8 mph 10.4 mph 71 % 0.00 in
13:33 73.7 °F 63.7 °F 30.21 in SSE 2.8 mph 5.8 mph 71 % 0.00 in
13:38 73.7 °F 63.7 °F 30.21 in SE 1.7 mph 5.8 mph 71 % 0.00 in
13:43 73.5 °F 63.1 °F 30.21 in SE 5.5 mph 10.4 mph 70 % 0.00 in
13:48 73.3 °F 63.3 °F 30.21 in SSE 3.6 mph 12.7 mph 71 % 0.00 in
13:53 73.0 °F 63.4 °F 30.21 in SE 2.7 mph 5.0 mph 72 % 0.00 in
13:58 72.8 °F 63.2 °F 30.21 in SE 2.8 mph 8.1 mph 72 % 0.00 in
14:03 72.7 °F 63.5 °F 30.21 in SSE 0.7 mph 3.5 mph 73 % 0.00 in
14:08 72.7 °F 63.9 °F 30.20 in SE 1.5 mph 4.0 mph 74 % 0.00 in
14:13 72.6 °F 63.8 °F 30.21 in SW 2.6 mph 4.6 mph 74 % 0.00 in
14:18 72.6 °F 64.2 °F 30.20 in SSE 1.9 mph 6.9 mph 75 % 0.00 in
14:23 72.4 °F 64.0 °F 30.20 in SE 3.7 mph 9.2 mph 75 % 0.00 in
14:29 72.4 °F 64.4 °F 30.20 in SSE 1.1 mph 2.3 mph 76 % 0.00 in
14:34 72.2 °F 64.2 °F 30.20 in SSE 4.0 mph 8.1 mph 76 % 0.00 in
14:39 72.1 °F 64.5 °F 30.19 in SSE 3.7 mph 8.1 mph 77 % 0.00 in
14:44 72.2 °F 64.6 °F 30.19 in South 1.4 mph 3.5 mph 77 % 0.00 in
14:49 72.4 °F 65.2 °F 30.19 in SE 1.2 mph 3.0 mph 78 % 0.00 in
14:54 72.6 °F 65.3 °F 30.19 in SE 2.5 mph 9.0 mph 78 % 0.00 in
14:59 72.8 °F 65.2 °F 30.19 in SE 2.5 mph 6.9 mph 77 % 0.00 in
15:04 72.9 °F 65.3 °F 30.18 in SE 2.0 mph 4.6 mph 77 % 0.00 in
15:09 73.0 °F 65.0 °F 30.18 in SE 6.8 mph 10.4 mph 76 % 0.00 in
15:14 73.1 °F 64.7 °F 30.18 in SE 3.2 mph 8.0 mph 75 % 0.00 in
15:19 73.0 °F 64.6 °F 30.18 in SSE 4.5 mph 8.1 mph 75 % 0.00 in
15:24 72.9 °F 64.5 °F 30.17 in SSE 3.4 mph 10.4 mph 75 % 0.00 in
15:29 72.9 °F 64.9 °F 30.17 in SSE 3.3 mph 9.2 mph 76 % 0.00 in
15:34 72.7 °F 64.3 °F 30.17 in SE 6.3 mph 10.4 mph 75 % 0.00 in
15:39 72.6 °F 64.6 °F 30.17 in SSW 0.9 mph 4.6 mph 76 % 0.00 in
15:44 72.7 °F 64.3 °F 30.17 in South 2.8 mph 4.0 mph 75 % 0.00 in
15:49 72.6 °F 64.2 °F 30.17 in SSE 1.9 mph 5.0 mph 75 % 0.00 in
15:54 72.6 °F 64.6 °F 30.16 in SSE 2.0 mph 3.5 mph 76 % 0.00 in
15:59 72.6 °F 64.6 °F 30.15 in ESE 3.2 mph 4.6 mph 76 % 0.00 in
16:04 72.5 °F 64.5 °F 30.15 in SSE 3.7 mph 11.5 mph 76 % 0.00 in
16:09 72.3 °F 64.3 °F 30.15 in SE 5.8 mph 10.4 mph 76 % 0.00 in
16:14 72.3 °F 64.7 °F 30.15 in South 0.4 mph 2.3 mph 77 % 0.00 in
16:19 72.2 °F 64.6 °F 30.14 in Calm     77 % 0.00 in
16:24 72.1 °F 64.5 °F 30.15 in South 0.9 mph 2.3 mph 77 % 0.00 in
16:29 72.0 °F 64.4 °F 30.15 in SE 0.6 mph 3.5 mph 77 % 0.00 in
16:34 72.0 °F 64.4 °F 30.15 in SE 0.4 mph 3.5 mph 77 % 0.00 in
16:39 71.9 °F 64.3 °F 30.15 in SE 0.7 mph 3.5 mph 77 % 0.00 in
16:44 71.8 °F 64.6 °F 30.14 in SSE 0.7 mph 2.0 mph 78 % 0.00 in
16:49 71.7 °F 64.5 °F 30.14 in SSE 2.7 mph 6.0 mph 78 % 0.00 in
16:54 71.5 °F 64.3 °F 30.14 in SE 3.5 mph 8.1 mph 78 % 0.00 in
16:59 71.3 °F 64.1 °F 30.16 in SE 1.3 mph 3.5 mph 78 % 0.00 in
17:04 71.1 °F 64.3 °F 30.14 in SE 2.1 mph 3.5 mph 79 % 0.00 in
17:09 71.0 °F 64.2 °F 30.14 in SE 5.8 mph 8.1 mph 79 % 0.00 in
17:14 70.8 °F 64.0 °F 30.15 in SSW 2.3 mph 3.5 mph 79 % 0.00 in
17:19 70.6 °F 63.8 °F 30.14 in ESE 4.1 mph 10.4 mph 79 % 0.00 in
17:24 70.4 °F 63.9 °F 30.14 in Calm   3.5 mph 80 % 0.00 in
17:29 70.3 °F 63.8 °F 30.14 in SSE 3.8 mph 5.8 mph 80 % 0.00 in
17:34 70.2 °F 63.7 °F 30.14 in SSE 1.2 mph 3.5 mph 80 % 0.00 in
17:39 69.9 °F 63.8 °F 30.14 in SE 4.7 mph 6.9 mph 81 % 0.00 in
17:44 69.6 °F 63.5 °F 30.14 in SE 3.3 mph 9.2 mph 81 % 0.00 in
17:49 69.4 °F 63.3 °F 30.14 in SSE 3.0 mph 6.0 mph 81 % 0.00 in
17:54 69.2 °F 63.5 °F 30.13 in SSE 1.8 mph 5.8 mph 82 % 0.00 in
17:59 69.1 °F 63.4 °F 30.13 in ESE 2.6 mph 6.0 mph 82 % 0.00 in
18:04 69.0 °F 63.6 °F 30.12 in SE 3.5 mph 5.8 mph 83 % 0.00 in
18:09 68.8 °F 63.4 °F 30.12 in SE 2.9 mph 3.5 mph 83 % 0.00 in
18:15 68.6 °F 63.2 °F 30.12 in SE 1.4 mph 4.6 mph 83 % 0.00 in
18:20 68.5 °F 63.5 °F 30.12 in SE 3.7 mph 6.9 mph 84 % 0.00 in
18:25 68.4 °F 63.4 °F 30.12 in SSE 2.0 mph 5.8 mph 84 % 0.00 in
18:30 68.3 °F 63.3 °F 30.12 in SE 1.0 mph 4.6 mph 84 % 0.00 in
18:35 68.3 °F 63.3 °F 30.12 in SSE 3.8 mph 9.2 mph 84 % 0.00 in
18:40 68.2 °F 63.2 °F 30.12 in SE 2.2 mph 9.2 mph 84 % 0.00 in
18:45 68.1 °F 63.1 °F 30.12 in SE 2.2 mph 3.5 mph 84 % 0.00 in
18:50 68.0 °F 63.3 °F 30.12 in SE 3.4 mph 5.0 mph 85 % 0.00 in
18:55 68.0 °F 63.3 °F 30.12 in SSE 1.3 mph 4.6 mph 85 % 0.00 in
19:00 68.0 °F 63.3 °F 30.12 in SE 4.3 mph 5.8 mph 85 % 0.00 in
19:05 67.9 °F 63.2 °F 30.12 in SE 1.0 mph 3.5 mph 85 % 0.00 in
19:10 67.9 °F 63.2 °F 30.12 in SE 1.2 mph 3.5 mph 85 % 0.00 in
19:15 67.9 °F 63.2 °F 30.11 in SE 3.6 mph 7.0 mph 85 % 0.00 in
19:20 67.8 °F 63.5 °F 30.11 in ESE 1.0 mph 3.5 mph 86 % 0.00 in
19:25 67.7 °F 63.4 °F 30.11 in SE 2.5 mph 3.5 mph 86 % 0.00 in
19:30 67.7 °F 63.4 °F 30.11 in SE 2.0 mph 5.8 mph 86 % 0.00 in
19:35 67.6 °F 63.3 °F 30.11 in SE 0.9 mph 3.5 mph 86 % 0.00 in
19:40 67.6 °F 63.3 °F 30.11 in ESE 2.3 mph 9.2 mph 86 % 0.00 in
19:45 67.6 °F 63.3 °F 30.11 in ESE 0.2 mph 1.2 mph 86 % 0.00 in
19:51 67.5 °F 63.2 °F 30.10 in SE 2.6 mph 4.6 mph 86 % 0.00 in
19:56 67.5 °F 63.5 °F 30.10 in SE 1.0 mph 6.0 mph 87 % 0.00 in
20:01 67.4 °F 63.4 °F 30.10 in SE 1.3 mph 5.8 mph 87 % 0.00 in
20:06 67.4 °F 63.4 °F 30.10 in SE 1.0 mph 6.0 mph 87 % 0.00 in
20:11 67.3 °F 63.3 °F 30.09 in SSE 2.2 mph 5.0 mph 87 % 0.00 in
20:16 67.3 °F 63.3 °F 30.09 in SE 3.0 mph 7.0 mph 87 % 0.00 in
20:21 67.3 °F 63.3 °F 30.09 in SE 1.0 mph 7.0 mph 87 % 0.00 in
20:26 67.3 °F 63.6 °F 30.09 in SE 2.0 mph 7.0 mph 88 % 0.00 in
20:31 67.3 °F 63.6 °F 30.08 in SE 2.0 mph 9.0 mph 88 % 0.00 in
20:36 67.3 °F 63.6 °F 30.09 in SE 2.0 mph 9.0 mph 88 % 0.00 in
20:41 67.4 °F 63.7 °F 30.08 in SE 2.0 mph 8.0 mph 88 % 0.00 in
20:46 67.4 °F 63.7 °F 30.08 in SE 5.0 mph 8.0 mph 88 % 0.00 in
20:51 67.5 °F 63.8 °F 30.08 in SE 1.0 mph 6.0 mph 88 % 0.00 in
20:56 67.6 °F 63.9 °F 30.08 in SSE 3.0 mph 10.0 mph 88 % 0.00 in
21:01 67.7 °F 64.0 °F 30.08 in SSE 1.3 mph 3.5 mph 88 % 0.00 in
21:06 67.8 °F 64.1 °F 30.07 in SE 3.0 mph 7.0 mph 88 % 0.00 in
21:11 67.8 °F 64.4 °F 30.07 in SE 6.0 mph 13.0 mph 89 % 0.00 in
21:16 67.9 °F 64.5 °F 30.07 in SE 3.0 mph 12.0 mph 89 % 0.00 in
21:21 68.1 °F 64.7 °F 30.07 in SE 3.0 mph 8.0 mph 89 % 0.00 in
21:26 68.1 °F 64.7 °F 30.07 in SE 5.0 mph 8.0 mph 89 % 0.00 in
21:31 68.2 °F 64.8 °F 30.07 in SE 2.0 mph 12.0 mph 89 % 0.00 in
21:36 68.2 °F 64.8 °F 30.07 in SE 5.0 mph 12.0 mph 89 % 0.00 in
21:37 68.3 °F 64.9 °F 30.07 in SE 4.3 mph 8.1 mph 89 % 0.00 in
21:42 68.3 °F 64.9 °F 30.07 in SSE 5.7 mph 10.4 mph 89 % 0.00 in
21:47 68.4 °F 65.4 °F 30.07 in SSE 4.3 mph 6.0 mph 90 % 0.00 in
21:49 68.4 °F 65.4 °F 30.06 in SE 3.6 mph 9.2 mph 90 % 0.00 in
21:54 68.5 °F 65.4 °F 30.07 in SSE 1.7 mph 9.2 mph 90 % 0.00 in
21:59 68.5 °F 65.4 °F 30.06 in SE 2.7 mph 5.8 mph 90 % 0.00 in
22:09 68.8 °F 65.4 °F 30.06 in SE 4.6 mph 6.9 mph 89 % 0.00 in
22:14 69.0 °F 65.6 °F 30.06 in SSE 1.9 mph 5.8 mph 89 % 0.00 in
22:19 69.1 °F 65.7 °F 30.06 in SSE 5.4 mph 10.4 mph 89 % 0.00 in
22:24 69.3 °F 65.6 °F 30.05 in SE 6.0 mph 11.5 mph 88 % 0.00 in
22:29 69.3 °F 65.6 °F 30.06 in SSE 3.4 mph 5.8 mph 88 % 0.00 in
22:34 69.4 °F 65.7 °F 30.06 in SSE 6.2 mph 9.0 mph 88 % 0.00 in
22:39 69.4 °F 65.7 °F 30.06 in ESE 5.8 mph 10.0 mph 88 % 0.00 in
22:44 69.4 °F 65.7 °F 30.05 in SE 4.6 mph 9.2 mph 88 % 0.00 in
22:46 69.4 °F 65.7 °F 30.05 in SSE 4.1 mph 5.8 mph 88 % 0.00 in
22:51 69.4 °F 65.7 °F 30.05 in SE 0.6 mph 3.5 mph 88 % 0.00 in
22:56 69.5 °F 65.8 °F 30.05 in SSE 3.3 mph 8.1 mph 88 % 0.00 in
23:01 69.6 °F 65.9 °F 30.05 in South 3.0 mph 10.4 mph 88 % 0.00 in
23:06 69.7 °F 66.0 °F 30.05 in SE 6.3 mph 10.4 mph 88 % 0.00 in
23:11 69.8 °F 66.1 °F 30.04 in SE 2.0 mph 10.4 mph 88 % 0.00 in
23:16 69.8 °F 66.1 °F 30.04 in SSE 1.5 mph 4.0 mph 88 % 0.00 in
23:21 69.9 °F 65.9 °F 30.03 in SE 3.5 mph 12.7 mph 87 % 0.00 in
23:23 70.0 °F 66.0 °F 30.03 in SSE 5.1 mph 18.0 mph 87 % 0.00 in
23:31 70.1 °F 66.0 °F 30.03 in ESE 5.4 mph 11.5 mph 87 % 0.00 in
23:36 70.2 °F 65.8 °F 30.02 in SSE 7.2 mph 12.7 mph 86 % 0.00 in
23:41 70.3 °F 65.9 °F 30.02 in SE 7.8 mph 15.0 mph 86 % 0.00 in
23:46 70.3 °F 65.9 °F 30.01 in SE 4.2 mph 10.4 mph 86 % 0.00 in
23:51 70.3 °F 65.9 °F 30.01 in SE 1.4 mph 6.9 mph 86 % 0.00 in
23:56 70.3 °F 65.9 °F 30.01 in SSE 5.5 mph 11.5 mph 86 % 0.00 in
Crab Meadow Weather
Compliments of Weather Underground - 3 mb

Script developed by  Jim McMurry - jmcmurry@mwt.net Adapted for the template by  Wim van der Kuil - Leuven-Template.eu

Recycling: Out of every $10 spent buying things, $1 (10%) goes for packaging that is thrown away. Packaging represents about 65% of household trash.